Temperature
33 32 31 32 33 33 33 33 32 33 34 34 33 32 32 32 31 30 29 28 27 27 26 25 24 23 22 22 21 21 20 20 20 20 20 20 20 19 19 19 19 19 19 19
33 32 32 33 34 34 33 33 33 33 34 34 33 32 32 32 32 31 30 29 28 27 26 25 24 24 23 22 21 21 21 20 20 20 20 20 20 20 19 19 19 19 19 19
32 33 34 34 34 33 33 33 33 33 34 34 32 30 31 31 32 31 30 30 29 28 26 25 24 24 23 22 22 21 21 20 20 20 20 20 20 20 20 19 19 19 19 19
33 34 34 34 34 34 33 34 34 34 33 32 32 29 30 30 31 31 31 30 29 28 27 26 25 24 24 23 22 21 21 20 20 20 20 20 19 19 19 19 19 19 19 19
33 34 34 34 34 34 34 35 35 34 33 32 32 30 30 30 29 31 31 30 30 29 28 26 25 25 24 23 22 22 21 21 20 20 20 20 20 20 19 19 19 19 19 19
33 35 35 35 35 35 35 34 34 33 32 30 31 30 29 30 29 30 31 30 30 29 28 27 26 25 24 23 22 22 21 21 20 20 20 20 20 20 19 19 19 19 19 19
32 34 35 35 34 34 34 33 31 29 28 29 30 30 30 31 32 32 31 31 30 29 28 27 26 25 24 23 23 22 21 21 20 20 20 19 19 19 19 19 19 19 19 19
31 32 33 34 34 33 33 33 30 28 28 29 30 30 31 33 32 32 31 31 30 29 28 27 26 25 24 23 23 22 21 21 21 20 20 20 19 19 19 19 19 19 19 19
32 31 33 34 34 33 32 32 33 31 30 30 30 30 30 31 31 31 31 30 30 29 28 27 26 25 24 23 23 22 21 21 20 20 20 20 20 19 19 19 19 19 19 19
32 30 32 34 34 34 34 33 33 31 29 29 29 29 28 29 30 31 30 30 29 29 28 27 26 25 24 23 23 22 22 21 21 20 20 20 20 19 19 19 19 19 19 19
32 31 31 32 32 32 32 33 32 32 31 29 28 29 31 29 30 30 30 29 29 28 28 27 26 25 24 23 23 22 21 21 21 20 20 19 19 19 19 19 19 19 19 19
32 31 30 31 33 34 33 33 32 31 30 30 30 29 31 31 31 31 30 29 28 28 27 26 26 25 24 23 22 22 21 21 20 20 20 19 19 19 19 19 19 18 18 18
31 30 29 30 31 32 32 33 33 32 31 30 30 29 31 31 30 30 29 28 28 27 27 26 25 24 23 23 22 21 21 21 20 20 20 19 19 19 18 18 18 18 18 18
29 29 29 28 29 30 30 31 32 31 30 29 30 29 30 30 29 29 29 28 27 27 26 26 25 24 23 22 22 21 21 20 20 20 19 19 19 18 18 18 18 18 18 17
30 29 29 29 30 29 30 30 31 31 30 30 30 30 30 30 29 28 28 28 27 26 26 25 24 23 22 22 21 21 21 20 20 20 19 19 19 18 18 18 18 18 17 17
29 28 28 28 29 29 29 30 30 31 31 31 30 30 30 30 29 28 28 28 27 26 25 25 24 23 22 21 21 20 20 20 20 20 19 19 18 18 18 18 17 17 17 17
28 27 26 27 28 28 28 30 30 31 31 31 30 30 30 29 29 28 28 27 27 26 25 24 23 22 22 21 21 20 20 20 19 19 19 18 18 18 17 17 17 17 17 17
27 26 26 27 27 25 28 30 31 30 30 31 30 30 30 29 28 28 27 27 26 25 24 24 23 22 21 21 20 20 19 19 19 19 18 18 17 17 17 17 17 16 16 16
28 26 26 26 26 26 28 29 30 29 29 29 29 29 29 29 29 28 26 26 25 24 24 23 23 22 21 20 20 19 19 19 18 18 18 17 17 17 17 16 16 16 16 16
28 26 25 25 24 25 27 28 29 29 27 28 28 28 28 28 28 27 26 25 24 24 23 22 22 22 21 20 19 19 19 18 18 18 17 17 17 17 16 16 16 16 16 16
25 25 25 24 24 25 27 28 28 26 25 26 26 27 27 26 26 25 25 24 24 24 23 22 22 21 20 19 19 19 18 18 18 17 17 17 17 16 16 16 16 16 16 15
25 25 24 24 24 24 27 27 26 25 25 25 25 25 25 25 25 24 24 24 23 23 23 22 21 21 20 19 19 18 18 17 17 17 17 16 16 16 16 16 16 15 15 15
25 25 25 25 24 24 24 25 24 24 24 24 24 24 24 24 24 23 23 23 23 22 22 21 20 20 19 19 18 18 17 17 16 16 16 16 16 16 15 15 15 15 15 15
25 25 24 24 24 24 24 24 24 23 23 23 23 23 22 22 22 22 22 22 21 21 21 20 19 19 18 18 17 17 17 16 16 16 16 16 16 15 15 15 15 15 15 15
23 23 23 22 23 23 23 22 22 22 22 22 22 22 21 21 21 21 21 20 20 20 20 19 19 18 18 17 17 16 16 16 16 15 15 15 15 15 15 15 15 15 15 15
23 23 22 22 22 22 22 22 21 21 21 21 21 21 21 20 20 20 20 20 19 19 18 18 18 17 17 16 16 16 16 16 15 15 15 15 15 15 15 15 15 15 15 14
Wind_Speed
14 12 9 11 13 11 9 7 6 4 4 4 4 6 8 12 13 13 13 14 14 13 13 13 12 12 12 11 10 8 7 6 4 4 3 2 2 2 1 2 3 3 2 3
14 13 13 14 13 11 10 9 6 5 5 3 2 2 6 10 12 13 15 14 15 14 13 13 12 12 13 12 10 9 8 7 6 4 3 2 2 3 2 1 3 3 2 2
16 12 12 13 13 13 11 9 8 7 5 5 3 4 5 7 9 12 13 14 14 15 15 14 13 12 12 12 11 10 9 8 7 5 4 3 2 2 2 2 2 2 2 3
16 14 14 13 12 12 10 10 10 8 8 7 6 5 6 8 9 12 13 13 13 14 14 14 13 13 13 13 12 9 8 7 7 6 5 5 4 3 2 2 2 3 2 2
15 13 15 14 11 11 11 11 10 9 10 10 7 7 7 9 9 11 12 13 14 14 14 14 13 12 11 12 12 10 9 7 7 6 6 5 4 3 2 2 3 3 3 2
17 15 15 13 11 11 11 11 10 9 9 11 10 9 6 8 11 12 13 13 12 13 13 13 12 11 10 10 10 10 9 8 7 7 6 6 4 4 3 3 3 3 3 3
18 18 16 14 14 13 13 11 7 7 8 10 10 7 5 8 11 11 12 13 13 12 12 12 11 11 9 9 9 9 9 8 7 7 6 5 5 4 4 4 3 3 3 2
15 14 14 14 14 11 12 12 10 9 9 9 8 7 6 6 6 8 9 11 12 12 11 10 11 10 9 9 9 9 9 8 7 7 5 4 4 4 4 4 4 3 2 2
12 12 10 12 12 12 13 13 13 12 12 10 6 3 1 3 6 8 9 9 10 10 10 9 10 10 10 8 8 9 9 8 7 7 6 5 5 4 3 3 3 2 1 2
12 11 13 12 11 14 15 14 10 9 8 9 6 5 4 6 7 8 7 7 8 9 9 9 9 9 10 9 8 8 9 8 7 6 5 5 5 4 3 3 3 2 2 1
11 13 13 11 12 13 13 14 11 9 9 9 7 5 5 9 10 10 9 8 8 8 9 9 9 8 8 8 8 7 7 8 7 6 5 4 5 5 4 4 3 3 2 2
10 12 12 13 13 13 13 14 14 11 10 10 9 4 2 3 5 7 8 8 8 6 7 8 8 8 7 6 6 5 5 6 6 5 4 4 4 4 4 4 4 4 3 2
5 8 10 13 13 12 13 14 14 12 11 10 10 5 3 2 3 5 7 8 7 7 7 8 7 7 6 5 5 5 4 4 5 5 5 4 4 4 4 3 3 3 3 3
5 11 13 13 10 9 12 14 12 12 10 11 10 6 4 3 3 5 7 7 7 7 7 7 7 6 5 5 4 4 4 3 3 4 4 4 4 3 3 3 3 3 3 3
8 12 14 14 13 13 16 16 14 12 12 13 11 7 5 3 4 4 6 7 7 7 7 7 7 6 5 5 4 3 3 3 3 2 3 3 2 2 2 2 3 2 3 4
9 11 12 15 14 15 18 17 15 14 14 13 11 7 4 2 5 6 6 6 6 7 7 7 7 7 6 5 4 3 3 3 3 2 2 2 2 2 2 2 2 3 3 3
10 10 12 14 14 15 19 16 15 13 12 10 9 5 2 1 1 3 5 6 6 7 7 7 6 7 6 6 5 4 3 3 3 3 2 2 2 2 2 3 2 3 3 3
10 10 10 13 12 16 11 11 10 10 8 6 3 2 1 1 1 2 2 2 5 6 6 6 6 6 6 6 5 4 4 3 3 3 2 2 2 2 2 2 2 2 3 3
12 9 10 11 14 15 12 9 9 7 6 4 3 2 2 1 3 3 3 3 3 3 4 5 5 6 5 5 5 4 4 3 3 2 2 2 2 3 3 3 3 3 3 3
15 11 11 11 13 15 9 6 6 5 3 4 3 2 3 2 3 1 3 3 3 4 4 5 6 6 6 5 5 4 4 4 3 2 2 2 2 3 3 3 2 2 3 3
14 13 14 14 15 12 8 6 5 6 2 3 4 3 2 1 2 1 2 1 2 4 4 3 5 6 6 5 5 4 3 3 2 2 2 1 1 2 2 2 2 2 2 3
13 13 14 14 14 11 4 3 2 1 1 2 4 4 4 3 2 2 2 1 2 3 3 3 3 4 5 6 5 4 2 2 2 1 1 1 1 2 2 2 2 2 2 2
10 9 8 7 5 1 3 3 3 2 2 2 3 4 5 4 3 2 2 2 3 3 3 3 3 4 5 5 4 3 2 2 2 1 1 1 1 1 2 2 3 2 3 3
6 6 6 4 2 1 1 2 3 3 3 3 3 4 4 4 4 3 4 3 3 3 3 3 3 4 4 4 4 3 3 3 2 2 2 2 2 2 1 2 3 3 2 3
6 5 7 6 4 3 3 2 3 3 3 2 2 4 4 4 4 3 3 2 2 2 2 3 2 2 3 3 3 3 3 3 2 2 2 2 2 2 2 1 1 2 1 2
8 7 7 5 3 3 4 1 2 3 3 4 4 3 3 3 4 3 2 2 2 2 2 2 3 3 3 3 3 3 3 3 2 2 2 2 2 2 2 1 0 3 1 1
Wind_Direction
233 233 241 249 248 249 264 272 266 268 241 213 197 163 163 172 169 168 167 169 172 174 170 167 169 165 161 160 162 168 172 168 178 184 201 186 174 198 180 165 161 154 179 189
241 235 231 245 256 255 258 262 264 271 258 232 201 190 176 179 180 173 171 176 175 172 167 166 172 170 168 166 169 170 175 179 195 192 195 191 193 202 176 183 145 143 179 196
240 243 236 242 252 255 257 262 262 263 270 248 197 248 205 197 193 174 171 175 173 173 170 169 175 177 172 169 173 180 180 182 196 193 195 197 189 213 180 165 156 161 184 184
246 244 248 248 249 257 264 264 265 267 263 256 233 240 213 188 201 179 173 173 174 174 171 172 177 181 178 173 174 171 170 178 183 188 194 199 202 213 195 177 162 177 185 188
246 237 245 249 254 258 266 271 276 274 270 267 252 248 219 180 194 182 177 178 177 175 173 173 177 180 178 174 172 168 167 173 177 188 195 209 207 204 199 180 185 196 189 185
258 250 249 251 253 258 265 268 270 278 277 266 260 256 221 192 191 189 182 176 174 173 172 168 171 167 170 168 166 164 163 171 178 188 195 203 210 204 199 196 195 210 201 195
245 244 243 246 249 250 250 254 260 264 257 258 259 255 223 192 185 183 175 170 171 168 165 165 165 161 161 161 161 158 160 169 176 183 192 194 203 204 201 209 206 217 210 197
243 242 237 239 243 247 251 247 246 257 259 258 245 236 209 170 152 151 157 157 160 160 162 159 163 160 159 163 161 159 160 170 177 181 189 184 192 211 211 214 217 218 216 184
257 251 241 238 241 246 251 251 253 259 265 268 264 259 130 128 144 152 153 152 156 154 154 153 154 156 158 166 164 163 159 165 174 181 182 181 191 213 216 215 224 218 229 196
255 268 257 244 237 237 247 258 264 257 266 277 269 262 208 196 173 164 161 166 153 145 150 153 155 153 158 169 165 159 158 165 169 171 182 189 194 201 205 218 216 226 215 216
249 259 258 246 240 239 237 243 252 265 264 267 265 259 210 190 179 177 171 166 153 150 155 155 150 151 152 156 157 157 154 162 168 172 177 180 186 196 203 210 207 221 229 212
243 255 262 258 250 248 247 252 253 256 263 269 273 259 230 191 163 164 154 139 138 143 150 150 148 148 151 150 148 147 157 166 168 163 168 177 183 193 207 210 209 209 217 218
269 259 259 255 249 239 250 253 252 256 262 266 268 247 175 154 119 128 123 130 130 135 139 144 142 142 144 144 143 148 158 164 165 161 173 175 190 203 214 210 213 205 205 217
260 255 258 261 270 267 260 259 255 255 261 268 268 244 207 168 135 136 130 135 142 143 142 147 141 135 131 132 131 144 161 157 160 164 175 172 193 208 206 206 210 206 204 213
252 255 261 264 267 273 266 259 252 250 254 261 268 256 223 170 148 154 149 150 155 153 154 147 142 134 134 133 132 133 140 139 143 146 171 168 181 207 208 205 215 212 211 221
247 267 271 263 256 260 265 260 258 252 251 254 259 256 235 164 160 172 161 159 159 157 156 154 150 147 147 145 146 144 146 139 136 153 170 164 183 201 208 218 224 223 220 220
253 252 268 266 262 261 257 255 255 252 257 255 253 251 220 200 132 157 172 172 168 164 162 163 159 160 157 157 152 153 151 153 162 167 166 158 184 208 223 232 227 230 232 228
256 257 257 264 266 260 267 277 263 256 268 278 286 302 306 246 201 149 138 157 160 163 164 162 164 161 161 157 150 152 160 157 162 168 166 171 194 219 231 238 237 240 248 245
250 249 253 257 257 257 258 270 277 271 273 327 323 306 296 251 204 150 104 79 110 141 152 155 172 166 159 159 152 155 161 159 172 178 182 193 207 221 228 235 241 239 237 245
237 233 240 250 255 256 255 261 283 273 268 354 344 351 332 314 243 178 75 103 155 169 145 163 175 162 159 152 153 165 174 173 186 192 194 205 209 220 228 236 247 249 238 243
227 227 233 242 252 257 265 266 264 256 199 355 343 3 351 1 318 349 3 90 174 149 142 152 158 158 150 148 153 170 177 180 175 179 185 195 200 221 223 218 236 249 262 255
233 229 232 239 246 248 265 248 241 111 60 31 1 11 8 357 0 357 344 47 113 121 124 133 132 144 142 150 156 163 165 160 151 160 173 182 201 259 237 206 235 248 263 257
239 243 244 242 236 77 45 71 88 76 40 35 13 15 1 353 1 359 23 62 85 105 114 123 147 143 135 143 149 163 153 138 140 148 173 188 195 245 225 223 236 238 240 250
245 256 257 258 195 237 300 67 56 50 31 5 16 15 15 0 1 35 46 61 53 79 103 132 153 145 144 148 151 154 146 140 146 168 191 208 215 225 224 224 235 238 247 255
272 261 253 247 246 241 268 17 22 9 351 348 10 28 24 359 349 35 51 67 53 75 82 107 121 131 127 125 132 147 148 146 161 184 212 221 222 222 203 221 288 261 273 242
264 256 250 249 243 267 264 269 311 316 335 339 349 3 10 1 348 12 23 67 66 82 81 103 114 124 120 122 133 145 143 145 169 199 232 242 227 227 228 202 341 30 55 127
Height
1478 1481 1485 1479 1473 1473 1472 1475 1477 1471 1463 1466 1471 1475 1476 1480 1482 1487 1492 1497 1501 1505 1509 1512 1515 1517 1519 1521 1523 1525 1527 1528 1529 1531 1532 1533 1534 1535 1536 1536 1536 1537 1537 1538
1476 1478 1474 1469 1467 1467 1469 1474 1475 1469 1462 1464 1472 1475 1473 1475 1478 1483 1488 1493 1497 1502 1506 1510 1513 1515 1517 1519 1521 1523 1525 1526 1528 1530 1531 1532 1533 1534 1535 1535 1535 1535 1536 1537
1475 1471 1466 1466 1467 1469 1468 1471 1471 1471 1464 1463 1473 1483 1477 1475 1477 1480 1484 1489 1494 1498 1502 1507 1510 1513 1515 1517 1519 1521 1522 1524 1526 1528 1530 1531 1532 1533 1534 1534 1534 1535 1535 1536
1468 1464 1463 1464 1465 1465 1472 1461 1461 1464 1472 1476 1473 1496 1483 1477 1476 1477 1481 1486 1490 1495 1499 1503 1507 1510 1513 1515 1517 1519 1521 1522 1524 1526 1528 1529 1531 1531 1532 1533 1533 1534 1534 1535
1465 1462 1463 1464 1461 1460 1463 1457 1458 1462 1469 1476 1474 1487 1485 1474 1479 1476 1478 1482 1486 1491 1495 1500 1504 1507 1510 1513 1515 1516 1518 1520 1522 1524 1525 1527 1529 1530 1531 1531 1532 1532 1533 1533
1460 1457 1456 1456 1456 1456 1456 1459 1461 1465 1475 1492 1481 1485 1487 1475 1474 1473 1474 1478 1483 1487 1492 1497 1501 1504 1508 1510 1513 1514 1515 1518 1519 1521 1523 1525 1526 1528 1529 1529 1530 1531 1531 1532
1464 1457 1453 1453 1458 1456 1457 1470 1488 1499 1501 1497 1475 1479 1479 1463 1462 1465 1469 1475 1480 1484 1489 1494 1498 1502 1505 1508 1510 1512 1513 1515 1517 1519 1521 1522 1524 1525 1526 1527 1528 1529 1530 1530
1469 1467 1453 1452 1456 1461 1460 1465 1490 1507 1505 1492 1476 1482 1468 1457 1460 1464 1468 1472 1477 1482 1486 1491 1495 1499 1502 1505 1508 1510 1511 1513 1515 1516 1518 1520 1522 1523 1524 1525 1526 1527 1528 1528
1465 1465 1450 1449 1450 1454 1461 1462 1459 1474 1481 1488 1482 1473 1466 1460 1462 1465 1469 1472 1476 1480 1484 1489 1493 1496 1500 1503 1505 1507 1509 1511 1513 1514 1516 1518 1519 1521 1522 1523 1524 1525 1526 1526
1456 1466 1453 1447 1448 1448 1452 1455 1461 1473 1492 1499 1489 1482 1481 1470 1465 1466 1469 1472 1475 1479 1484 1487 1491 1495 1498 1501 1503 1506 1507 1509 1511 1512 1514 1515 1516 1518 1519 1521 1522 1523 1524 1525
1452 1464 1459 1452 1454 1455 1454 1456 1458 1462 1468 1488 1497 1489 1462 1462 1462 1464 1467 1472 1474 1479 1482 1486 1490 1493 1497 1500 1502 1504 1506 1507 1509 1511 1512 1513 1514 1516 1517 1518 1519 1520 1521 1522
1451 1458 1464 1455 1445 1443 1448 1452 1456 1471 1475 1471 1479 1481 1456 1456 1458 1461 1466 1471 1475 1478 1482 1486 1489 1493 1496 1499 1501 1503 1505 1507 1508 1509 1510 1511 1512 1514 1514 1515 1516 1517 1518 1519
1454 1462 1474 1469 1458 1449 1450 1448 1448 1453 1461 1469 1478 1479 1455 1457 1459 1464 1467 1472 1476 1479 1482 1486 1489 1492 1495 1498 1500 1502 1504 1505 1507 1507 1508 1510 1510 1511 1512 1513 1514 1515 1515 1516
1457 1461 1469 1476 1468 1458 1458 1454 1449 1455 1466 1471 1468 1468 1459 1460 1463 1465 1469 1473 1476 1480 1482 1485 1489 1492 1495 1497 1499 1501 1502 1504 1505 1506 1507 1507 1508 1510 1510 1511 1511 1512 1512 1513
1456 1462 1461 1459 1456 1455 1457 1454 1451 1454 1457 1465 1462 1461 1459 1457 1462 1466 1469 1473 1476 1479 1482 1485 1488 1491 1493 1496 1498 1499 1501 1502 1503 1504 1505 1505 1506 1507 1508 1508 1509 1509 1509 1510
1455 1462 1463 1464 1456 1456 1456 1450 1450 1449 1450 1453 1454 1458 1454 1456 1461 1464 1467 1471 1474 1477 1480 1483 1486 1489 1492 1494 1496 1498 1499 1500 1501 1502 1503 1503 1504 1504 1505 1505 1506 1506 1507 1507
1456 1462 1469 1469 1458 1458 1462 1450 1447 1447 1444 1447 1454 1453 1452 1456 1460 1463 1465 1469 1473 1476 1479 1482 1485 1487 1489 1492 1493 1495 1497 1498 1500 1500 1501 1501 1501 1502 1502 1503 1503 1504 1504 1504
1460 1463 1465 1466 1468 1479 1456 1441 1439 1443 1443 1443 1446 1449 1451 1455 1460 1462 1465 1468 1471 1475 1477 1480 1483 1486 1488 1490 1492 1493 1495 1496 1497 1498 1499 1499 1499 1499 1500 1500 1500 1500 1501 1501
1454 1460 1466 1468 1471 1465 1451 1444 1441 1445 1449 1446 1448 1450 1452 1455 1458 1462 1466 1468 1471 1474 1477 1480 1482 1484 1486 1488 1489 1491 1493 1494 1495 1496 1496 1497 1497 1497 1497 1497 1497 1497 1497 1497
1451 1455 1465 1468 1474 1472 1455 1445 1443 1446 1456 1451 1452 1452 1454 1455 1459 1463 1465 1467 1471 1473 1475 1478 1479 1482 1484 1486 1487 1489 1490 1491 1492 1493 1494 1494 1494 1494 1494 1494 1495 1495 1494 1494
1454 1457 1461 1466 1469 1458 1448 1444 1445 1459 1462 1457 1455 1455 1456 1459 1462 1465 1465 1467 1469 1471 1474 1476 1478 1480 1481 1483 1485 1486 1488 1489 1490 1491 1491 1492 1492 1492 1492 1492 1492 1492 1492 1492
1450 1455 1459 1461 1466 1464 1447 1446 1451 1457 1457 1456 1458 1458 1459 1460 1462 1463 1465 1466 1467 1470 1472 1474 1476 1478 1479 1481 1482 1484 1485 1486 1487 1488 1488 1489 1489 1489 1490 1490 1489 1489 1489 1489
1443 1446 1448 1451 1456 1452 1450 1450 1453 1455 1458 1459 1460 1460 1461 1461 1462 1463 1464 1466 1467 1468 1470 1473 1475 1476 1478 1479 1480 1482 1483 1484 1484 1485 1485 1486 1486 1486 1487 1487 1487 1487 1487 1487
1441 1443 1445 1449 1449 1451 1451 1452 1454 1457 1459 1461 1461 1461 1462 1462 1463 1464 1464 1466 1467 1468 1469 1471 1473 1474 1476 1477 1478 1480 1481 1481 1482 1482 1483 1483 1484 1484 1484 1485 1485 1485 1485 1485
1445 1446 1446 1449 1450 1452 1453 1454 1455 1457 1459 1460 1461 1461 1462 1463 1464 1464 1465 1466 1467 1468 1469 1470 1472 1473 1475 1476 1477 1478 1479 1479 1480 1480 1481 1481 1482 1482 1482 1482 1483 1482 1482 1482
1444 1446 1447 1449 1450 1452 1453 1455 1456 1457 1458 1459 1460 1461 1462 1464 1464 1464 1465 1466 1467 1468 1469 1470 1471 1472 1473 1474 1475 1476 1477 1477 1478 1478 1479 1479 1479 1480 1480 1480 1480 1480 1480 1480